Date,TemperatureHighF,TemperatureAvgF,TemperatureLowF,DewpointHighF,DewpointAvgF,DewpointLowF,HumidityHigh,HumidityAvg,HumidityLow,PressureMaxIn,PressureMinIn,WindSpeedMaxMPH,WindSpeedAvgMPH,GustSpeedMaxMPH,PrecipitationSumIn
2012-1-1,34.0,26.8,22.0,28.0,15.8,12.0,79,63,49,0.00,40.00,29,18,44,0.00
2012-1-2,22.0,16.6,8.0,12.0,5.6,-99.9,78,62,54,0.00,40.00,17,3,26,0.00
2012-1-3,36.0,25.7,8.0,24.0,15.3,3.0,80,65,47,0.00,40.00,27,12,37,0.00
2012-1-4,45.0,34.2,23.0,29.0,25.5,20.0,88,70,50,0.00,40.00,15,10,22,0.00
2012-1-5,56.0,39.5,28.0,33.0,27.1,22.0,81,62,38,0.00,40.00,15,7,19,0.00
2012-1-6,45.0,38.7,32.0,30.0,25.7,19.0,78,59,50,0.00,40.00,16,8,24,0.00
2012-1-7,37.0,28.8,20.0,26.0,21.4,16.0,87,74,55,0.00,40.00,10,5,14,0.00
2012-1-8,44.0,28.9,16.0,27.0,21.2,14.0,91,75,41,0.00,40.00,12,6,16,0.00
2012-1-9,49.0,34.9,27.0,27.0,25.2,22.0,88,69,41,0.00,40.00,18,12,26,0.00
2012-1-10,56.0,37.0,24.0,33.0,26.3,20.0,87,67,38,0.00,40.00,16,6,20,0.00
2012-1-11,35.0,25.4,14.0,33.0,19.3,6.0,91,77,65,0.00,40.00,24,13,40,0.00
2012-1-12,14.0,8.9,5.0,7.0,1.2,-2.0,74,70,64,0.00,40.00,21,15,34,0.01
2012-1-13,20.0,9.7,0.0,3.0,-1.4,-6.0,76,61,38,0.00,40.00,12,7,23,0.00
2012-1-14,36.0,22.3,13.0,28.0,15.9,3.0,90,76,55,0.00,40.00,18,6,24,0.00
2012-1-15,48.0,32.0,17.0,26.0,20.4,15.0,91,64,38,0.00,40.00,24,11,34,0.00
2012-1-16,33.0,24.9,15.0,24.0,16.3,8.0,78,69,59,0.00,40.00,14,9,23,0.00
2012-1-17,15.0,8.0,-3.0,8.0,1.3,-8.0,81,74,62,0.00,40.00,18,10,27,0.01
2012-1-18,29.0,13.8,-4.0,18.0,6.7,-8.0,82,73,60,0.00,40.00,23,13,28,0.00
2012-1-19,5.0,-0.6,-6.0,-7.0,-11.3,-99.9,69,61,49,0.00,40.00,14,-1,24,0.00
2012-1-20,9.0,3.8,-6.0,3.0,-1.8,-11.0,82,77,58,0.00,40.00,12,6,17,0.36
2012-1-21,22.0,3.8,-17.0,21.0,0.4,-21.0,93,85,80,0.00,40.00,32,12,39,0.00
2012-1-22,34.0,29.4,22.0,33.0,28.4,21.0,97,96,92,0.00,40.00,22,10,28,0.00
2012-1-23,26.0,23.0,21.0,24.0,18.7,16.0,93,83,77,0.00,40.00,22,13,28,0.21
2012-1-24,25.0,22.6,19.0,22.0,18.4,16.0,88,83,76,0.00,40.00,11,6,15,0.00
2012-1-25,32.0,27.6,24.0,30.0,23.2,-99.9,94,86,81,0.00,40.00,14,-7,17,0.00
2012-1-26,39.0,31.6,26.0,31.0,22.1,-99.9,91,73,59,0.00,40.00,20,-17,27,0.00
2012-1-27,35.0,27.8,20.0,32.0,19.7,-99.9,91,76,59,0.00,40.00,26,-9,34,0.14
2012-1-28,33.0,24.9,18.0,20.0,13.2,-99.9,81,66,52,0.00,40.00,22,-14,30,0.01
2012-1-29,31.0,23.8,13.0,21.0,13.2,-99.9,81,68,50,0.00,40.00,19,-12,24,0.00
2012-1-30,50.0,37.2,30.0,32.0,23.7,-99.9,76,60,48,0.00,40.00,17,-7,22,0.00
2012-1-31,46.0,39.0,29.0,35.0,29.8,-99.9,93,71,54,0.00,40.00,18,4,23,0.00
2012-2-1,48.0,34.1,25.0,36.0,28.1,-99.9,95,81,50,0.00,40.00,9,-3,12,0.00
2012-2-2,47.0,34.7,23.0,35.0,26.3,-99.9,93,77,50,0.00,40.00,6,-18,9,0.00
2012-2-3,35.0,31.0,30.0,33.0,26.7,-99.9,95,91,89,0.00,40.00,10,-22,21,0.00
2012-2-4,37.0,29.8,27.0,29.0,23.1,-99.9,95,82,62,0.00,40.00,10,-22,21,0.00
2012-2-5,30.0,26.3,24.0,28.0,21.8,-99.9,95,90,87,0.00,40.00,11,-22,15,0.00
2012-2-6,46.0,29.2,22.0,35.0,24.3,-99.9,95,86,53,0.00,40.00,11,-3,14,0.00
2012-2-9,39.0,28.6,9.0,27.0,22.0,6.0,89,77,55,0.00,40.00,19,12,26,0.00
2012-2-10,23.0,8.5,2.0,17.0,-4.9,-99.9,78,55,46,0.00,40.00,19,6,33,0.00
2012-2-11,23.0,9.7,-1.0,-3.0,-7.6,-12.0,61,46,29,0.00,40.00,19,10,27,0.00
2012-2-12,31.0,18.1,-1.0,7.0,1.0,-8.0,74,49,27,0.00,40.00,17,10,23,0.00
2012-2-13,30.0,24.7,17.0,27.0,19.5,7.0,93,81,50,0.00,40.00,16,8,22,0.30
2012-2-14,36.0,23.3,12.0,27.0,19.5,11.0,93,86,61,0.00,40.00,13,5,16,0.00
2012-2-15,40.0,28.0,12.0,32.0,23.1,10.0,93,82,64,0.00,40.00,8,3,13,0.00
2012-2-16,34.0,24.5,11.0,26.0,18.4,9.0,93,77,57,0.00,40.00,16,9,20,0.00
2012-2-17,38.0,28.0,17.0,26.0,19.1,10.0,85,69,48,0.00,40.00,16,8,21,0.00
2012-2-18,40.0,24.3,11.0,22.0,14.9,6.0,87,68,43,0.00,40.00,7,4,10,0.00
2012-2-19,40.0,27.5,12.0,27.0,20.7,9.0,91,77,55,0.00,40.00,14,8,19,0.00
2012-2-20,38.0,33.0,28.0,35.0,27.4,21.0,96,80,66,0.00,40.00,25,15,37,0.48
2012-2-21,37.0,33.1,29.0,34.0,27.2,22.0,95,79,55,0.00,40.00,24,13,31,0.00
2012-2-22,44.0,34.6,28.0,33.0,28.4,24.0,91,78,58,0.00,40.00,15,5,21,0.00
2012-2-23,35.0,31.8,28.0,31.0,29.3,26.0,95,90,80,0.00,40.00,12,7,23,0.23
2012-2-24,29.0,23.6,17.0,27.0,16.4,7.0,94,74,61,0.00,40.00,20,13,28,0.01
2012-2-25,30.0,17.6,6.0,15.0,8.8,0.0,78,68,42,0.00,40.00,17,8,29,0.00
2012-2-26,37.0,28.8,20.0,28.0,19.2,12.0,78,67,54,0.00,40.00,39,22,49,0.00
2012-2-27,28.0,21.3,14.0,22.0,13.9,8.0,79,72,63,0.00,40.00,23,10,30,0.00
2012-2-28,37.0,31.5,28.0,36.0,28.2,22.0,96,87,76,0.00,40.00,16,8,21,0.66
2012-2-29,40.0,32.6,29.0,39.0,29.9,-99.9,96,91,85,0.00,40.00,24,10,35,0.64
2012-3-1,33.0,29.7,26.0,30.0,26.3,-99.9,93,89,82,0.00,40.00,12,-2,18,0.00
2012-3-2,34.0,29.8,28.0,29.0,22.3,-99.9,93,75,57,0.00,40.00,24,5,36,0.00
2012-3-3,29.0,24.8,20.0,21.0,15.4,-99.9,76,68,63,0.00,40.00,24,8,39,0.00
2012-3-4,30.0,21.5,14.0,24.0,14.6,-99.9,86,79,70,0.00,40.00,11,-16,16,0.18
2012-3-5,14.0,11.1,9.0,10.0,8.0,6.0,87,86,84,0.00,40.00,8,5,9,0.00
2012-3-12,61.0,49.6,41.0,46.0,43.2,36.0,93,79,54,0.00,40.00,18,10,25,0.03
2012-3-13,72.0,51.8,32.0,49.0,39.5,30.0,95,67,38,0.00,40.00,22,10,27,0.00
2012-3-14,73.0,58.7,46.0,53.0,43.9,36.0,91,62,33,0.00,40.00,13,8,18,0.00
2012-3-15,76.0,53.7,33.0,51.0,38.4,27.0,92,59,32,0.00,40.00,12,5,16,0.00
2012-3-16,81.0,69.5,50.0,57.0,53.2,48.0,93,59,37,0.00,40.00,18,11,24,0.00
2012-3-17,78.0,65.7,55.0,62.0,55.8,53.0,93,73,43,0.00,40.00,26,14,32,0.00
2012-3-18,82.0,68.5,60.0,59.0,56.2,53.0,87,67,37,0.00,40.00,29,19,39,0.00
2012-3-19,75.0,64.1,53.0,59.0,56.0,51.0,92,76,51,0.00,40.00,29,16,35,0.00
2012-3-20,60.0,54.3,50.0,56.0,50.9,-99.9,93,90,70,0.00,40.00,13,5,17,0.11
2012-3-21,66.0,58.6,54.0,56.0,53.5,50.0,93,84,58,0.00,40.00,10,5,14,0.01
2012-3-22,63.0,58.2,50.0,60.0,54.0,-99.9,93,87,78,0.00,40.00,14,0,18,0.26
2012-3-23,70.0,56.1,48.0,57.0,46.5,40.0,94,74,35,0.00,40.00,9,4,17,0.00
2012-3-24,77.0,60.1,41.0,54.0,44.9,38.0,91,63,29,0.00,40.00,9,3,13,0.00
2012-3-25,59.0,49.0,39.0,51.0,40.2,37.0,93,74,50,0.00,40.00,10,6,16,0.00
2012-3-26,58.0,51.7,46.0,45.0,36.4,32.0,85,56,45,0.00,40.00,29,18,42,0.00
2012-3-27,73.0,60.6,49.0,53.0,39.0,33.0,86,47,30,0.00,40.00,29,21,40,0.00
2012-3-28,67.0,53.1,37.0,38.0,34.6,30.0,85,53,27,0.00,40.00,11,5,16,0.00
2012-3-29,72.0,54.5,41.0,50.0,41.5,35.0,89,63,38,0.00,40.00,25,12,32,0.11
2012-3-30,69.0,56.3,50.0,51.0,46.0,-99.9,93,73,32,0.00,40.00,12,-2,18,0.00
2012-3-31,71.0,55.3,48.0,55.0,49.7,46.0,94,83,50,0.00,40.00,17,12,23,0.00
2012-4-1,89.0,62.3,44.0,58.0,48.0,42.0,93,66,22,0.00,40.00,22,10,28,0.00
2012-4-2,88.0,66.0,53.0,57.0,52.9,45.0,93,68,32,0.00,40.00,22,14,29,0.00
2012-4-3,62.0,54.7,47.0,45.0,37.6,-99.9,72,54,34,0.00,40.00,15,1,28,0.00
2012-4-4,66.0,53.6,43.0,30.0,27.7,26.0,55,38,22,0.00,40.00,17,7,26,0.00
2012-4-5,64.0,52.0,39.0,33.0,28.1,23.0,69,41,27,0.00,40.00,16,8,22,0.00
2012-4-6,65.0,50.2,36.0,31.0,26.9,23.0,69,42,23,0.00,40.00,24,12,29,0.00
2012-4-7,58.0,51.2,40.0,47.0,29.8,17.0,87,45,27,0.00,40.00,29,15,37,0.00
2012-4-8,66.0,50.6,32.0,29.0,21.1,2.0,59,33,11,0.00,40.00,27,12,34,0.00
2012-4-9,57.0,45.2,32.0,26.0,18.0,11.0,47,33,24,0.00,40.00,26,10,35,0.00
2012-4-10,49.0,38.1,26.0,21.0,16.6,13.0,60,42,30,0.00,40.00,20,8,28,0.00
2012-4-11,57.0,39.3,23.0,23.0,17.1,12.0,65,42,25,0.00,40.00,7,3,14,0.00
2012-4-12,56.0,44.4,30.0,38.0,25.2,12.0,72,47,31,0.00,40.00,16,9,24,0.08
2012-4-13,67.0,52.0,45.0,56.0,46.7,38.0,94,82,58,0.00,40.00,32,17,45,0.58
2012-4-14,66.0,56.1,46.0,57.0,50.5,-99.9,94,84,65,0.00,40.00,30,9,51,0.37
2012-4-15,73.0,61.6,48.0,60.0,52.3,38.0,93,74,40,0.00,40.00,33,18,42,0.81
2012-4-16,49.0,41.7,35.0,45.0,33.2,29.0,91,72,54,0.00,40.00,27,16,39,0.00
2012-4-17,67.0,48.9,30.0,45.0,37.0,29.0,94,67,40,0.00,40.00,22,11,32,0.00
2012-4-18,66.0,57.3,48.0,50.0,44.2,37.0,89,64,36,0.00,40.00,27,-3,44,0.87
2012-4-19,48.0,42.3,39.0,41.0,38.5,34.0,94,86,73,0.00,40.00,17,7,29,0.66
2012-4-20,58.0,44.6,33.0,36.0,30.5,26.0,92,62,34,0.00,40.00,10,5,20,0.00
2012-4-21,61.0,47.5,39.0,46.0,38.3,33.0,91,72,40,0.00,40.00,21,9,27,0.05
2012-4-22,51.0,44.9,39.0,41.0,37.9,36.0,92,77,56,0.00,40.00,16,8,26,0.00
2012-4-23,68.0,50.5,34.0,39.0,32.6,-99.9,94,58,23,0.00,40.00,13,-2,20,0.00
2012-4-24,86.0,64.8,41.0,49.0,41.5,34.0,80,47,23,0.00,40.00,12,4,17,0.00
2012-4-25,86.0,69.7,57.0,54.0,48.1,44.0,80,49,25,0.00,40.00,19,7,32,0.00
2012-4-26,64.0,57.1,49.0,46.0,36.4,24.0,82,48,25,0.00,40.00,12,7,19,0.00
2012-4-27,60.0,49.1,43.0,37.0,31.9,26.0,70,53,32,0.00,40.00,29,17,42,0.20
2012-4-28,46.0,42.3,38.0,43.0,38.6,-99.9,95,89,65,0.00,40.00,17,9,25,0.06
2012-4-29,50.0,46.5,44.0,45.0,43.0,42.0,94,87,75,0.00,40.00,12,7,21,0.00
2012-4-30,72.0,57.2,46.0,50.0,45.7,42.0,93,69,38,0.00,40.00,14,7,26,0.00
2012-5-1,84.0,65.8,52.0,61.0,54.0,50.0,93,70,37,0.00,40.00,27,17,71,0.08
2012-5-2,78.0,66.7,56.0,67.0,61.4,54.0,93,83,66,0.00,40.00,12,7,19,0.00
2012-5-3,87.0,72.5,62.0,65.0,59.4,53.0,92,66,33,0.00,40.00,12,6,21,0.00
2012-5-4,82.0,67.2,60.0,63.0,59.5,55.0,93,78,49,0.00,40.00,38,8,38,0.37
2012-5-5,71.0,63.7,61.0,63.0,59.4,-99.9,93,88,61,0.00,40.00,20,10,27,0.00
2012-5-6,73.0,63.7,57.0,65.0,56.9,50.0,93,79,52,0.00,40.00,16,9,35,0.15
2012-5-7,66.0,57.5,49.0,50.0,40.0,31.0,78,54,30,0.00,40.00,21,10,29,0.00
2012-5-8,60.0,51.3,46.0,47.0,41.6,36.0,86,70,46,0.00,40.00,24,11,31,0.00
2012-5-9,66.0,54.5,45.0,47.0,42.1,37.0,91,66,37,0.00,40.00,9,5,15,0.00
2012-5-10,80.0,63.7,46.0,49.0,42.5,38.0,74,49,28,0.00,40.00,24,14,32,0.00
2012-5-11,68.0,59.9,51.0,53.0,43.1,33.0,76,55,33,0.00,40.00,19,12,30,0.00
2012-5-12,70.0,58.4,49.0,45.0,35.5,-99.9,81,48,23,0.00,40.00,9,4,14,0.00
2012-5-13,76.0,60.4,40.0,45.0,34.1,28.0,87,42,21,0.00,40.00,11,4,15,0.00
2012-5-14,85.0,67.1,47.0,45.0,39.0,31.0,66,38,22,0.00,40.00,16,7,23,0.00
2012-5-15,76.0,66.1,53.0,45.0,38.5,32.0,54,37,28,0.00,40.00,15,8,26,0.00
2012-5-16,78.0,62.7,45.0,42.0,37.4,32.0,70,41,25,0.00,40.00,10,4,14,0.00
2012-5-17,91.0,73.1,57.0,53.0,46.6,32.0,59,40,26,0.00,40.00,29,20,41,0.00
2012-5-18,95.0,78.7,65.0,58.0,52.9,47.0,57,42,28,0.00,40.00,29,20,36,0.00
2012-5-19,87.0,72.5,59.0,62.0,56.3,-99.9,89,60,40,0.00,40.00,26,13,32,0.06
2012-5-20,65.0,57.7,49.0,56.0,46.8,35.0,93,70,34,0.00,40.00,18,8,24,0.07
2012-5-21,78.0,62.4,45.0,46.0,40.8,36.0,84,51,23,0.00,40.00,11,4,15,0.00
2012-5-22,88.0,71.4,53.0,49.0,44.6,41.0,69,41,25,0.00,40.00,27,15,37,0.00
2012-5-23,92.0,74.8,60.0,60.0,51.4,42.0,89,46,32,0.00,40.00,32,19,40,0.00
2012-5-24,63.0,59.3,52.0,60.0,54.1,46.0,93,84,56,0.00,40.00,17,7,33,1.08
2012-5-25,65.0,58.0,49.0,58.0,51.6,47.0,92,80,54,0.00,40.00,9,4,14,0.04
2012-5-26,83.0,68.2,56.0,72.0,61.8,53.0,93,80,65,0.00,40.00,21,12,28,0.00
2012-5-27,91.0,78.9,65.0,70.0,64.5,54.0,91,64,37,0.00,40.00,31,17,42,0.00
2012-5-28,75.0,66.0,56.0,63.0,54.1,43.0,92,68,39,0.00,40.00,24,9,31,0.21
2012-5-29,67.0,57.9,49.0,49.0,39.8,-99.9,80,52,37,0.00,40.00,23,6,36,0.00
2012-5-30,62.0,52.2,44.0,50.0,42.7,38.0,92,72,43,0.00,40.00,9,4,15,0.19
2012-5-31,62.0,52.6,47.0,47.0,43.5,37.0,93,73,42,0.00,40.00,10,4,18,0.02
2012-6-1,69.0,56.2,42.0,51.0,42.0,33.0,93,64,32,0.00,40.00,16,6,22,0.01
2012-6-2,76.0,61.6,51.0,53.0,45.9,-99.9,93,63,31,0.00,40.00,12,0,19,0.00
2012-6-3,89.0,72.3,54.0,60.0,52.8,47.0,80,53,33,0.00,40.00,19,8,27,0.00
2012-6-4,85.0,72.8,58.0,60.0,53.4,48.0,82,54,31,0.00,40.00,7,4,12,0.00
2012-6-5,87.0,74.6,59.0,58.0,54.0,48.0,80,51,33,0.00,40.00,7,4,12,0.00
2012-6-6,85.0,73.5,64.0,58.0,56.0,52.0,77,56,39,0.00,40.00,17,9,21,0.01
2012-6-7,82.0,70.5,61.0,62.0,57.2,52.0,90,64,44,0.00,40.00,16,8,19,0.07
2012-6-8,88.0,75.3,61.0,58.0,55.2,51.0,79,52,34,0.00,40.00,19,11,26,0.00
2012-6-9,89.0,76.7,59.0,58.0,52.4,-99.9,83,47,27,0.00,40.00,21,12,30,0.00
2012-6-10,78.0,71.0,65.0,69.0,59.9,53.0,92,69,44,0.00,40.00,18,10,27,0.22
2012-6-11,75.0,66.5,59.0,63.0,49.0,35.0,92,58,29,0.00,40.00,21,10,30,0.00
2012-6-12,73.0,60.0,48.0,45.0,39.5,37.0,69,48,28,0.00,40.00,11,5,16,0.00
2012-6-13,79.0,65.4,56.0,52.0,47.1,43.0,85,53,33,0.00,40.00,23,12,30,0.04
2012-6-14,86.0,74.3,64.0,68.0,60.1,48.0,91,62,47,0.00,40.00,22,14,35,0.00
2012-6-15,72.0,68.5,65.0,67.0,63.8,60.0,91,85,72,0.00,40.00,19,4,31,0.34
2012-6-16,79.0,69.7,60.0,65.0,57.3,-99.9,92,69,37,0.00,40.00,16,7,22,0.00
2012-6-17,85.0,71.8,52.0,70.0,57.0,44.0,88,61,39,0.00,40.00,23,12,32,0.00
2012-6-18,92.0,82.1,73.0,74.0,67.6,62.0,82,62,46,0.00,40.00,18,9,27,0.00
2012-6-19,90.0,81.5,72.0,73.0,67.9,64.0,87,65,47,0.00,40.00,26,14,35,0.00
2012-6-20,81.0,71.6,59.0,70.0,64.2,57.0,93,78,60,0.00,40.00,18,9,29,0.48
2012-6-21,78.0,67.3,57.0,57.0,51.9,47.0,93,62,33,0.00,40.00,14,7,21,0.00
2012-6-22,84.0,68.9,55.0,61.0,55.4,52.0,88,65,37,0.00,40.00,9,4,13,0.00
2012-6-23,78.0,68.7,62.0,65.0,60.8,57.0,91,77,59,0.00,40.00,14,8,20,0.05
2012-6-24,83.0,73.8,65.0,67.0,64.6,62.0,91,74,54,0.00,40.00,14,6,21,0.00
2012-6-25,80.0,71.2,64.0,67.0,59.5,-99.9,89,68,51,0.00,40.00,13,1,18,0.00
2012-6-26,82.0,70.6,58.0,62.0,54.2,49.0,75,56,44,0.00,40.00,22,12,27,0.00
2012-6-27,95.0,82.3,67.0,76.0,66.2,55.0,83,59,45,0.00,40.00,17,9,28,0.00
2012-6-28,89.0,80.1,73.0,75.0,62.2,53.0,89,58,31,0.00,40.00,12,4,19,0.00
2012-6-29,89.0,75.1,69.0,71.0,63.6,58.0,91,68,46,0.00,40.00,5,3,9,0.00
2012-6-30,89.0,78.5,63.0,72.0,68.0,61.0,92,72,46,0.00,40.00,10,3,14,0.00
2012-7-1,91.0,80.0,69.0,75.0,70.0,65.0,92,74,44,0.00,40.00,16,6,21,0.00
2012-7-2,91.0,81.2,71.0,71.0,69.2,66.0,91,69,46,0.00,40.00,14,8,22,0.00
2012-7-3,93.0,82.0,72.0,74.0,70.6,67.0,90,70,50,0.00,40.00,16,8,21,0.00
2012-7-4,94.0,82.8,71.0,74.0,69.8,66.0,91,67,45,0.00,40.00,14,8,20,0.00
2012-7-5,88.0,79.7,74.0,75.0,71.1,66.0,89,75,58,0.00,40.00,9,5,16,0.00
2012-7-6,96.0,83.8,70.0,75.0,71.2,67.0,91,68,45,0.00,40.00,12,6,17,0.00
2012-7-7,83.0,74.3,67.0,74.0,62.4,57.0,89,68,42,0.00,40.00,9,4,18,0.00
2012-7-8,85.0,72.6,65.0,62.0,58.7,-99.9,87,65,37,0.00,40.00,6,-5,10,0.00
2012-7-9,85.0,73.7,61.0,63.0,59.0,52.0,92,63,38,0.00,40.00,7,3,16,0.00
2012-7-10,85.0,72.0,56.0,59.0,54.3,51.0,89,58,31,0.00,40.00,6,3,13,0.00
2012-7-11,84.0,71.8,57.0,62.0,56.5,54.0,92,62,37,0.00,40.00,9,4,15,0.00
2012-7-12,89.0,74.5,59.0,69.0,62.1,55.0,87,67,43,0.00,40.00,9,4,12,0.00
2012-7-13,92.0,79.5,67.0,73.0,67.4,63.0,92,69,42,0.00,40.00,8,3,12,0.00
2012-7-14,91.0,79.3,66.0,71.0,64.2,60.0,91,64,37,0.00,40.00,8,3,12,0.00
2012-7-15,91.0,78.3,63.0,70.0,66.5,60.0,91,69,47,0.00,40.00,12,5,17,0.00
2012-7-16,92.0,80.2,68.0,69.0,63.7,-99.9,89,61,40,0.00,40.00,19,1,26,0.00
2012-7-17,83.0,72.2,67.0,71.0,66.6,64.0,91,83,55,0.00,40.00,9,5,15,0.00
2012-7-18,89.0,80.6,71.0,71.0,69.2,68.0,90,70,51,0.00,40.00,4,2,7,0.00
2012-7-19,92.0,78.4,66.0,76.0,67.0,64.0,91,72,40,0.00,40.00,7,3,11,0.00
2012-7-20,90.0,76.8,65.0,70.0,66.4,62.0,91,72,48,0.00,40.00,10,5,16,0.00
2012-7-21,89.0,76.6,65.0,68.0,64.2,58.0,89,67,46,0.00,40.00,10,5,14,0.00
2012-7-22,96.0,81.6,71.0,74.0,68.1,64.0,90,66,42,0.00,40.00,15,6,24,0.04
2012-7-23,100.0,85.7,74.0,78.0,67.3,58.0,91,56,35,0.00,40.00,12,4,21,0.00
2012-7-24,96.0,83.1,74.0,77.0,68.8,64.0,91,65,35,0.00,40.00,17,8,25,0.00
2012-7-25,96.0,81.9,72.0,71.0,66.3,62.0,91,62,38,0.00,40.00,15,7,24,0.01
2012-7-26,89.0,77.2,65.0,69.0,58.0,50.0,91,57,28,0.00,40.00,18,7,27,0.00
2012-7-27,80.0,69.5,60.0,60.0,56.7,54.0,88,66,42,0.00,40.00,11,4,18,0.00
2012-7-28,73.0,64.8,60.0,65.0,61.2,57.0,91,88,69,0.00,40.00,14,5,22,0.29
2012-7-29,81.0,72.7,64.0,68.0,63.8,62.0,91,75,54,0.00,40.00,11,5,21,0.07
2012-7-30,94.0,77.5,62.0,73.0,65.8,60.0,91,70,40,0.00,40.00,9,4,16,0.00
2012-7-31,88.0,75.5,62.0,67.0,62.6,59.0,90,67,41,0.00,40.00,7,3,11,0.00
2012-8-1,95.0,80.3,65.0,73.0,65.5,59.0,91,64,40,0.00,40.00,11,5,21,0.00
2012-8-2,89.0,77.6,68.0,65.0,62.5,59.0,89,62,41,0.00,40.00,11,3,21,0.00
2012-8-3,91.0,77.3,65.0,69.0,64.0,-99.9,91,67,48,0.00,40.00,13,-1,31,0.00
2012-8-4,79.0,70.6,64.0,65.0,57.7,49.0,91,67,37,0.00,40.00,20,7,35,0.76
2012-8-5,77.0,66.2,56.0,56.0,51.9,46.0,90,63,37,0.00,40.00,9,4,14,0.00
2012-8-6,90.0,72.3,54.0,64.0,57.2,51.0,91,63,36,0.00,40.00,11,5,17,0.00
2012-8-7,89.0,77.4,64.0,68.0,62.9,60.0,87,63,37,0.00,40.00,9,4,15,0.00
2012-8-8,86.0,75.0,67.0,66.0,62.7,58.0,89,67,40,0.00,40.00,10,5,24,0.00
2012-8-9,80.0,69.9,59.0,64.0,56.2,48.0,91,65,35,0.00,40.00,14,6,22,0.00
2012-8-10,75.0,63.2,54.0,56.0,52.2,49.0,92,70,40,0.00,40.00,9,3,14,0.00
2012-8-11,77.0,60.5,48.0,57.0,49.6,46.0,93,72,37,0.00,40.00,6,2,12,0.00
2012-8-12,68.0,61.0,58.0,58.0,55.9,52.0,92,83,67,0.00,40.00,10,6,17,0.21
2012-8-13,80.0,66.4,56.0,58.0,55.1,50.0,92,71,37,0.00,40.00,9,4,17,0.00
2012-8-14,84.0,69.4,53.0,59.0,54.5,51.0,91,63,34,0.00,40.00,10,4,18,0.00
2012-8-15,87.0,72.3,62.0,65.0,59.7,54.0,90,66,42,0.00,40.00,17,8,26,0.00
2012-8-16,73.0,64.8,53.0,62.0,49.7,43.0,85,60,36,0.00,40.00,15,9,25,0.00
2012-8-17,75.0,60.7,46.0,47.0,44.2,42.0,86,59,31,0.00,40.00,9,4,15,0.00
2012-8-18,69.0,55.8,47.0,57.0,49.8,44.0,93,81,48,0.00,40.00,12,3,16,0.15
2012-8-19,74.0,61.1,50.0,57.0,52.2,48.0,93,74,46,0.00,40.00,11,5,17,0.00
2012-8-20,80.0,64.3,49.0,61.0,49.4,45.0,93,64,31,0.00,40.00,6,2,9,0.00
2012-8-21,84.0,67.7,51.0,53.0,49.6,45.0,86,56,30,0.00,40.00,9,4,16,0.00
2012-8-22,92.0,72.2,57.0,60.0,53.1,48.0,80,54,26,0.00,40.00,17,8,27,0.00
2012-8-23,91.0,76.2,61.0,64.0,59.2,53.0,78,57,39,0.00,40.00,21,10,30,0.00
2012-8-24,89.0,76.6,65.0,65.0,62.4,59.0,89,63,39,0.00,40.00,15,9,22,0.00
2012-8-25,69.0,67.3,65.0,66.0,64.7,62.0,93,91,81,0.00,40.00,12,5,21,0.96
2012-8-26,84.0,72.4,62.0,69.0,63.3,58.0,92,76,41,0.00,40.00,6,2,9,0.00
2012-8-27,89.0,72.2,56.0,69.0,60.4,54.0,91,70,35,0.00,40.00,5,2,9,0.00
2012-8-28,91.0,75.6,62.0,67.0,61.1,58.0,91,64,35,0.00,40.00,14,6,23,0.00
2012-8-29,95.0,78.6,67.0,61.0,58.1,56.0,72,52,30,0.00,40.00,13,8,21,0.00
2012-8-30,97.0,79.5,65.0,65.0,59.2,57.0,87,54,28,0.00,40.00,21,10,28,0.00
2012-8-31,87.0,73.7,63.0,64.0,54.5,47.0,86,55,31,0.00,40.00,12,5,19,0.00
2012-9-1,88.0,73.5,60.0,65.0,57.0,48.0,77,57,40,0.00,40.00,8,4,15,0.00
2012-9-2,93.0,74.1,56.0,63.0,57.9,53.0,91,61,31,0.00,40.00,11,5,17,0.00
2012-9-3,86.0,74.0,63.0,69.0,64.2,59.0,91,73,41,0.00,40.00,7,3,11,0.00
2012-9-4,94.0,76.9,62.0,67.0,62.7,54.0,93,65,34,0.00,40.00,27,4,40,1.91
2012-9-5,80.0,67.9,57.0,62.0,52.6,42.0,93,64,30,0.00,40.00,11,5,19,0.00
2012-9-6,84.0,66.6,46.0,58.0,47.1,43.0,91,56,25,0.00,40.00,12,4,21,0.10
2012-9-7,71.0,62.3,52.0,60.0,49.1,38.0,90,65,35,0.00,40.00,12,6,22,0.00
2012-9-8,82.0,61.3,46.0,45.0,40.8,-99.9,85,53,24,0.00,40.00,21,2,34,0.00
2012-9-9,76.0,59.9,46.0,50.0,44.9,42.0,89,61,31,0.00,40.00,6,3,9,0.00
2012-9-10,84.0,65.2,45.0,52.0,45.7,43.0,92,56,26,0.00,40.00,19,10,29,0.00
2012-9-11,93.0,76.3,60.0,52.0,49.8,47.0,72,42,24,0.00,40.00,24,13,35,0.00
2012-9-12,75.0,60.1,52.0,53.0,46.1,40.0,91,63,37,0.00,40.00,11,4,20,0.19
2012-9-13,76.0,58.6,48.0,57.0,46.5,36.0,93,70,24,0.00,40.00,9,4,14,0.00
2012-9-14,83.0,63.7,50.0,45.0,43.5,39.0,82,52,23,0.00,40.00,7,5,12,0.00
2012-9-15,82.0,65.8,51.0,46.0,42.8,39.0,76,47,24,0.00,40.00,19,9,25,0.00
2012-9-16,79.0,64.2,51.0,59.0,51.1,46.0,91,65,37,0.00,40.00,12,6,19,0.00
2012-9-17,64.0,55.6,45.0,53.0,40.9,31.0,91,61,32,0.00,40.00,12,6,20,0.00
2012-9-18,63.0,50.6,36.0,40.0,33.8,28.0,90,58,27,0.00,40.00,12,5,18,0.00
2012-9-19,77.0,61.0,47.0,45.0,36.6,24.0,74,43,23,0.00,40.00,22,10,33,0.00
2012-9-20,67.0,54.7,43.0,36.0,31.2,26.0,59,42,27,0.00,40.00,17,7,27,0.00
2012-9-21,71.0,58.4,50.0,42.0,37.9,33.0,71,48,28,0.00,40.00,17,6,27,0.00
2012-9-22,59.0,46.8,35.0,37.0,28.6,-99.9,68,51,33,0.00,40.00,14,7,30,0.00
2012-9-23,65.0,45.5,28.0,34.0,27.1,22.0,89,54,24,0.00,40.00,7,3,12,0.00
2012-9-24,78.0,56.9,36.0,40.0,34.1,25.0,72,45,25,0.00,40.00,19,8,27,0.00
2012-9-25,78.0,60.7,43.0,44.0,39.3,32.0,86,50,23,0.00,40.00,7,4,12,0.00
2012-9-26,70.0,53.2,33.0,39.0,32.7,28.0,83,49,26,0.00,40.00,7,3,14,0.00
2012-9-27,72.0,52.3,35.0,40.0,35.5,31.0,88,57,27,0.00,40.00,6,2,11,0.00
2012-9-28,79.0,56.2,35.0,43.0,36.0,30.0,93,55,21,0.00,40.00,6,2,12,0.00
2012-9-29,84.0,60.2,40.0,42.0,38.5,33.0,88,50,22,0.00,40.00,6,2,12,0.00
2012-9-30,83.0,60.8,42.0,45.0,41.0,37.0,89,54,24,0.00,40.00,6,1,8,0.00
2012-10-1,71.0,58.9,44.0,49.0,39.8,28.0,87,52,31,0.00,40.00,16,7,27,0.00
2012-10-2,75.0,55.2,34.0,44.0,32.9,27.0,82,45,23,0.00,40.00,10,3,16,0.00
2012-10-3,79.0,59.2,39.0,42.0,35.3,29.0,80,45,23,0.00,40.00,17,8,26,0.00
2012-10-4,60.0,47.0,40.0,41.0,33.9,27.0,89,61,38,0.00,40.00,22,15,36,0.00
2012-10-5,50.0,38.8,28.0,30.0,22.9,17.0,85,55,33,0.00,40.00,23,10,32,0.00
2012-10-6,44.0,35.3,27.0,29.0,23.6,17.0,76,62,48,0.00,40.00,12,7,22,0.00
2012-10-7,56.0,36.9,15.0,29.0,21.1,14.0,94,58,30,0.00,40.00,18,7,24,0.00
2012-10-8,72.0,53.8,39.0,48.0,34.1,24.0,91,50,24,0.00,40.00,24,12,35,0.02
2012-10-9,50.0,46.3,31.0,48.0,34.9,21.0,93,67,37,0.00,40.00,24,10,33,0.14
2012-10-10,59.0,41.9,28.0,29.0,24.7,21.0,80,54,25,0.00,40.00,17,9,22,0.00
2012-10-11,53.0,45.9,34.0,32.0,26.4,18.0,55,46,39,0.00,40.00,21,9,27,0.01
2012-10-12,56.0,41.9,26.0,42.0,20.5,16.0,76,46,22,0.00,40.00,22,10,30,0.00
2012-10-13,74.0,58.8,48.0,58.0,50.1,42.0,93,74,50,0.00,40.00,19,9,26,0.00
2012-10-14,62.0,51.7,43.0,51.0,38.1,27.0,91,63,32,0.00,40.00,16,8,27,0.00
2012-10-15,70.0,50.8,29.0,42.0,33.9,25.0,88,56,30,0.00,40.00,15,6,19,0.00
2012-10-16,77.0,59.0,50.0,47.0,43.3,38.0,82,59,29,0.00,40.00,14,8,19,0.00
2012-10-17,61.0,53.6,46.0,51.0,40.3,31.0,85,61,43,0.00,40.00,31,18,40,0.00
2012-10-18,47.0,43.0,40.0,45.0,39.9,33.0,93,88,59,0.00,40.00,27,18,37,1.45
2012-10-19,44.0,42.5,41.0,42.0,40.3,39.0,93,91,88,0.00,40.00,17,11,27,0.21
2012-10-20,57.0,46.7,41.0,45.0,41.2,39.0,94,82,55,0.00,40.00,14,6,17,0.00
2012-10-21,76.0,55.4,43.0,51.0,45.2,41.0,92,72,38,0.00,40.00,18,9,23,0.00
2012-10-22,64.0,56.0,50.0,58.0,48.9,45.0,91,77,61,0.00,40.00,9,4,14,0.00
2012-10-23,63.0,59.4,55.0,61.0,56.4,53.0,92,89,82,0.00,40.00,14,7,20,0.00
2012-10-24,57.0,51.4,43.0,55.0,49.0,40.0,93,91,88,0.00,40.00,12,6,24,0.14
2012-10-25,43.0,36.8,33.0,40.0,30.5,23.0,93,78,57,0.00,40.00,21,14,34,1.79
2012-10-26,38.0,35.8,34.0,25.0,21.0,19.0,64,54,47,0.00,40.00,15,9,22,0.00
2012-10-27,42.0,34.0,23.0,28.0,21.0,17.0,87,60,37,0.00,40.00,8,4,10,0.00
2012-10-28,49.0,38.9,31.0,30.0,26.9,24.0,77,62,45,0.00,40.00,16,9,22,0.00
2012-10-29,54.0,42.1,35.0,28.0,24.9,22.0,67,50,36,0.00,40.00,21,12,28,0.00
2012-10-30,49.0,39.5,31.0,28.0,24.9,22.0,80,57,36,0.00,40.00,12,4,15,0.00
2012-10-31,56.0,40.9,28.0,33.0,26.1,22.0,83,58,31,0.00,40.00,8,3,12,0.00
2012-11-1,48.0,41.6,32.0,38.0,30.1,21.0,89,65,38,0.00,40.00,12,6,19,0.00
2012-11-2,43.0,36.3,30.0,27.0,25.4,23.0,76,64,51,0.00,40.00,12,6,17,0.04
2012-11-3,49.0,39.9,29.0,31.0,27.5,25.0,87,62,42,0.00,40.00,8,2,11,0.00
2012-11-4,50.0,43.0,39.0,40.0,34.9,31.0,93,73,54,0.00,40.00,10,5,12,0.17
2012-11-5,41.0,40.2,39.0,40.0,38.4,37.0,93,93,93,0.00,40.00,11,4,17,0.11
2012-11-6,47.0,42.6,39.0,38.0,33.9,29.0,93,72,54,0.00,40.00,21,13,29,0.00
2012-11-7,50.0,40.2,31.0,33.0,29.8,27.0,89,67,44,0.00,40.00,13,6,22,0.00
2012-11-8,61.0,44.7,35.0,36.0,32.5,30.0,87,65,35,0.00,40.00,20,10,25,0.00
2012-11-9,56.0,44.1,32.0,43.0,36.4,31.0,93,76,51,0.00,40.00,14,8,24,0.00
2012-11-10,73.0,59.0,48.0,55.0,49.0,43.0,93,72,38,0.00,40.00,28,15,45,0.29
2012-11-11,48.0,28.0,20.0,46.0,20.2,9.0,93,73,54,0.00,40.00,20,15,29,0.17
2012-11-12,31.0,23.4,17.0,15.0,12.4,10.0,79,63,46,0.00,40.00,26,15,33,0.00
2012-11-13,48.0,31.8,16.0,28.0,19.2,11.0,82,62,35,0.00,40.00,12,6,17,0.00
2012-11-14,52.0,39.1,27.0,31.0,27.8,-99.9,87,67,40,0.00,40.00,11,6,19,0.00
2012-11-15,52.0,38.9,27.0,35.0,27.9,19.0,83,65,42,0.00,40.00,12,8,17,0.00
2012-11-16,49.0,33.0,19.0,29.0,22.2,15.0,86,66,38,0.00,40.00,12,5,16,0.00
2012-11-17,58.0,45.0,33.0,37.0,31.5,28.0,89,62,37,0.00,40.00,24,15,32,0.00
2012-11-18,60.0,49.0,39.0,34.0,31.0,27.0,64,50,37,0.00,40.00,19,13,24,0.00
2012-11-19,60.0,49.1,40.0,39.0,36.5,33.0,86,62,44,0.00,40.00,15,8,19,0.00
2012-11-20,61.0,42.7,29.0,38.0,30.2,23.0,94,66,27,0.00,40.00,14,6,17,0.00
2012-11-21,69.0,54.8,41.0,44.0,37.8,31.0,71,54,33,0.00,40.00,28,16,35,0.00
2012-11-22,57.0,45.6,30.0,44.0,34.9,18.0,87,66,46,0.00,40.00,25,15,39,0.00
2012-11-23,30.0,23.2,15.0,18.0,12.2,8.0,75,62,52,0.00,40.00,23,14,43,0.00
2012-11-24,38.0,24.8,10.0,20.0,14.3,6.0,87,66,43,0.00,40.00,18,8,26,0.00
2012-11-25,40.0,32.0,28.0,27.0,21.9,18.0,85,67,48,0.00,40.00,11,6,16,0.00
2012-11-26,28.0,19.3,11.0,21.0,9.3,2.0,76,64,50,0.00,40.00,12,6,22,0.00
2012-11-27,39.0,24.1,10.0,24.0,16.6,4.0,86,73,54,0.00,40.00,21,10,27,0.00
2012-11-28,44.0,27.6,11.0,27.0,19.1,9.0,93,72,43,0.00,40.00,14,7,21,0.00
2012-11-29,47.0,33.4,19.0,31.0,24.6,18.0,94,71,47,0.00,40.00,11,3,12,0.00
2012-11-30,44.0,33.6,25.0,32.0,28.4,23.0,94,82,61,0.00,40.00,12,5,17,0.00
2012-12-1,52.0,39.9,31.0,49.0,37.8,30.0,95,92,76,0.00,40.00,16,9,21,0.00
2012-12-2,60.0,39.5,24.0,42.0,33.0,23.0,95,81,40,0.00,40.00,16,7,22,0.00
2012-12-3,57.0,47.7,31.0,52.0,36.3,17.0,94,68,34,0.00,40.00,20,13,28,0.00
2012-12-4,47.0,34.0,22.0,24.0,18.7,11.0,65,53,39,0.00,40.00,12,6,16,0.00
2012-12-5,47.0,32.8,20.0,28.0,18.8,11.0,70,57,44,0.00,40.00,24,14,31,0.00
2012-12-6,49.0,42.1,34.0,36.0,27.4,-99.9,82,59,40,0.00,40.00,21,9,30,0.01
2012-12-7,34.0,30.5,28.0,27.0,22.1,20.0,89,70,61,0.00,40.00,8,3,12,0.01
2012-12-8,33.0,29.9,27.0,31.0,26.2,24.0,93,86,72,0.00,40.00,19,7,24,0.01
2012-12-9,34.0,25.0,11.0,33.0,22.0,5.0,95,87,76,0.00,40.00,21,14,33,0.00
2012-12-10,23.0,12.8,2.0,9.0,2.9,-5.0,76,64,50,0.00,40.00,16,9,27,0.00
2012-12-11,37.0,25.0,14.0,24.0,17.0,9.0,84,72,51,0.00,40.00,18,10,24,0.00
2012-12-12,50.0,36.2,21.0,18.0,15.8,11.0,82,46,25,0.00,40.00,29,16,35,0.00
2012-12-13,39.0,31.6,20.0,21.0,17.0,12.0,89,56,37,0.00,40.00,16,7,22,0.00
2012-12-14,51.0,34.5,18.0,30.0,22.6,16.0,91,65,37,0.00,40.00,17,8,22,0.00
2012-12-15,45.0,39.1,32.0,41.0,36.2,30.0,94,90,56,0.00,40.00,14,8,21,0.22
2012-12-16,33.0,22.9,19.0,30.0,18.8,14.0,91,83,78,0.00,40.00,12,7,19,0.00
2012-12-17,29.0,24.6,20.0,27.0,22.0,18.0,92,89,83,0.00,40.00,10,4,14,0.00
2012-12-18,33.0,30.3,29.0,29.0,27.6,26.0,93,89,80,0.00,40.00,12,7,20,0.01
2012-12-19,39.0,29.6,22.0,34.0,25.1,20.0,93,84,58,0.00,40.00,14,4,25,0.24
2012-12-20,22.0,17.2,10.0,20.0,12.6,4.0,91,81,73,0.00,40.00,21,14,32,0.12
2012-12-21,25.0,12.6,3.0,13.0,5.5,-2.0,83,73,57,0.00,40.00,13,6,21,0.00
2012-12-22,33.0,18.7,10.0,18.0,11.2,6.0,81,72,54,0.00,40.00,14,7,17,0.00
2012-12-23,19.0,13.1,9.0,15.0,9.2,5.0,87,83,80,0.00,40.00,11,4,16,0.00
2012-12-24,16.0,9.6,-2.0,10.0,4.0,-8.0,85,77,70,0.00,40.00,15,8,21,0.01
2012-12-25,10.0,2.3,-4.0,2.0,-3.7,-9.0,78,75,70,0.00,40.00,11,6,16,0.00
2012-12-26,16.0,8.4,0.0,10.0,0.9,-5.0,87,71,55,0.00,40.00,7,4,11,0.00
2012-12-27,20.0,15.8,9.0,17.0,12.4,6.0,89,86,81,0.00,40.00,11,6,16,0.10
2012-12-28,23.0,18.0,12.0,17.0,14.2,9.0,89,85,75,0.00,40.00,11,5,15,0.11
2012-12-29,13.0,9.4,2.0,10.0,6.3,-2.0,88,86,81,0.00,40.00,13,8,17,0.02
2012-12-30,32.0,15.4,0.0,22.0,9.8,-4.0,87,78,63,0.00,40.00,18,8,23,0.00
2012-12-31,20.0,12.1,-1.0,16.0,5.8,-7.0,84,74,66,0.00,40.00,16,7,27,0.00
2013-1-1,17.0,7.8,-5.0,14.0,2.2,-10.0,88,77,68,0.00,40.00,15,6,19,0.00